TimeEST,TemperatureF,Dew PointF,Humidity,Sea Level PressureIn,VisibilityMPH,Wind Direction,Wind SpeedMPH,Gust SpeedMPH,PrecipitationIn,Events,Conditions,WindDirDegrees,DateUTC
12:08 AM,26.6,24.8,93,29.69,0.5,North,17.3,28.8,0.00,Fog-Rain-Snow,Freezing Rain,360,2013-02-09 05:08:00
12:46 AM,26.6,24.8,93,29.71,0.2,NNW,16.1,24.2,0.00,Fog-Rain-Snow,Freezing Rain,340,2013-02-09 05:46:00
12:53 AM,26.1,24.1,92,29.71,0.2,North,18.4,26.5,0.00,Fog-Rain-Snow,Freezing Rain,350,2013-02-09 05:53:00
1:22 AM,24.8,23.0,93,29.72,0.2,North,13.8,32.2,0.02,Fog-Rain-Snow,Freezing Rain,350,2013-02-09 06:22:00
1:30 AM,24.8,23.0,93,29.73,0.2,NNW,16.1,29.9,0.02,Fog-Rain-Snow,Freezing Rain,340,2013-02-09 06:30:00
1:38 AM,24.8,23.0,93,29.73,0.5,North,15.0,28.8,0.02,Fog-Rain-Snow,Freezing Rain,350,2013-02-09 06:38:00
1:53 AM,25.0,24.1,96,29.74,0.5,NNW,18.4,24.2,0.02,Fog-Rain-Snow,Freezing Rain,340,2013-02-09 06:53:00
2:53 AM,25.0,23.0,92,29.74,0.5,NNW,18.4,38.0,0.00,Fog-Rain-Snow,Freezing Rain,340,2013-02-09 07:53:00
3:53 AM,25.0,23.0,92,29.75,0.5,NNW,18.4,33.4,0.00,Fog-Rain-Snow,Freezing Rain,340,2013-02-09 08:53:00
4:23 AM,24.8,23.0,93,29.77,0.5,NNW,19.6,28.8,0.01,Fog-Rain-Snow,Freezing Rain,340,2013-02-09 09:23:00
4:33 AM,24.8,23.0,93,29.77,0.2,NNW,16.1,24.2,0.01,Fog-Rain-Snow,Freezing Rain,340,2013-02-09 09:33:00
4:48 AM,24.8,23.0,93,29.77,0.5,NNW,15.0,32.2,0.01,Fog-Rain-Snow,Freezing Rain,330,2013-02-09 09:48:00
4:53 AM,25.0,23.0,92,29.78,0.5,NNW,16.1,23.0,0.01,Fog-Rain-Snow,Freezing Rain,340,2013-02-09 09:53:00
5:01 AM,24.8,23.0,93,29.78,0.5,NNW,12.7,21.9,0.00,Fog-Rain-Snow,Freezing Rain,330,2013-02-09 10:01:00
5:31 AM,26.6,23.0,86,29.79,1.0,NNW,15.0,20.7,0.00,Rain-Snow,Freezing Rain,330,2013-02-09 10:31:00
5:38 AM,26.6,23.0,86,29.79,1.0,NNW,11.5,23.0,0.00,Rain-Snow,Freezing Rain,330,2013-02-09 10:38:00
5:50 AM,26.6,23.0,86,29.79,3.0,NNW,12.7,20.7,0.00,Rain-Snow,Freezing Rain,330,2013-02-09 10:50:00
5:53 AM,26.1,23.0,88,29.80,5.0,NNW,10.4,19.6,0.00,Rain-Snow,Freezing Rain,330,2013-02-09 10:53:00
5:59 AM,26.6,21.2,80,29.80,9.0,NNW,17.3,26.5,0.00,Rain-Snow,Freezing Rain,330,2013-02-09 10:59:00
6:53 AM,27.0,21.9,81,29.83,10.0,NNW,12.7,23.0,0.00,Rain-Snow,Freezing Rain,330,2013-02-09 11:53:00
7:53 AM,28.0,21.9,78,29.85,10.0,NNW,10.4,20.7,0.00,Rain-Snow,Freezing Rain,330,2013-02-09 12:53:00
8:53 AM,28.0,21.9,78,29.88,10.0,NNW,13.8,21.9,0.00,Rain-Snow,Freezing Rain,330,2013-02-09 13:53:00
10:28 AM,28.4,21.2,74,29.92,2.0,NW,17.3,34.5,N/A,Rain-Snow,Freezing Rain,320,2013-02-09 15:28:00
10:38 AM,28.4,19.4,69,29.92,4.0,NNW,23.0,34.5,N/A,Rain-Snow,Freezing Rain,330,2013-02-09 15:38:00
10:53 AM,28.9,19.9,69,29.93,3.0,NNW,20.7,33.4,N/A,Rain-Snow,Freezing Rain,340,2013-02-09 15:53:00
11:53 AM,30.0,17.1,59,29.95,4.0,NNW,23.0,32.2,N/A,Rain-Snow,Freezing Rain,340,2013-02-09 16:53:00
12:40 PM,30.2,14.0,51,29.95,1.8,NNW,24.2,36.8,N/A,Rain-Snow,Freezing Rain,340,2013-02-09 17:40:00
12:53 PM,30.0,12.9,49,29.95,1.8,NNW,26.5,39.1,N/A,Rain-Snow,Freezing Rain,340,2013-02-09 17:53:00
1:19 PM,30.2,10.4,44,29.96,2.5,NNW,21.9,38.0,N/A,Rain-Snow,Freezing Rain,330,2013-02-09 18:19:00
1:40 PM,30.2,10.4,44,29.97,2.5,North,19.6,36.8,N/A,Rain-Snow,Freezing Rain,350,2013-02-09 18:40:00
1:50 PM,30.2,8.6,40,29.98,5.0,NNW,16.1,34.5,N/A,Rain-Snow,Freezing Rain,340,2013-02-09 18:50:00
1:53 PM,30.9,9.0,40,29.99,7.0,NNW,20.7,31.1,N/A,Rain-Snow,Freezing Rain,340,2013-02-09 18:53:00
2:04 PM,30.2,10.4,44,29.99,2.5,NNW,19.6,38.0,N/A,Rain-Snow,Freezing Rain,340,2013-02-09 19:04:00
2:16 PM,30.2,10.4,44,29.99,4.0,NNW,24.2,33.4,N/A,Rain-Snow,Freezing Rain,340,2013-02-09 19:16:00
2:26 PM,30.2,8.6,40,30.00,2.5,NNW,20.7,36.8,N/A,Rain-Snow,Freezing Rain,340,2013-02-09 19:26:00
2:53 PM,30.9,9.0,40,30.03,10.0,NNW,16.1,27.6,N/A,Rain-Snow,Freezing Rain,340,2013-02-09 19:53:00
3:53 PM,30.9,8.1,38,30.05,9.0,NNW,13.8,25.3,N/A,Rain-Snow,Freezing Rain,340,2013-02-09 20:53:00
4:53 PM,30.0,6.1,36,30.09,10.0,NNW,20.7,28.8,N/A,Rain-Snow,Freezing Rain,340,2013-02-09 21:53:00
5:53 PM,28.0,6.1,39,30.14,10.0,North,9.2,16.1,N/A,Rain-Snow,Freezing Rain,350,2013-02-09 22:53:00
6:53 PM,26.1,5.0,41,30.19,10.0,North,6.9,-,N/A,,Clear,360,2013-02-09 23:53:00
7:53 PM,24.1,6.1,46,30.21,10.0,North,4.6,-,N/A,,Clear,350,2013-02-10 00:53:00
8:53 PM,25.0,3.0,39,30.25,10.0,NNW,11.5,18.4,N/A,,Clear,340,2013-02-10 01:53:00
9:53 PM,25.0,3.9,41,30.28,10.0,NNW,11.5,-,N/A,,Clear,330,2013-02-10 02:53:00
10:53 PM,23.0,3.0,42,30.30,10.0,NNW,11.5,-,N/A,,Clear,340,2013-02-10 03:53:00
11:53 PM,21.9,3.0,44,30.32,10.0,NNW,10.4,21.9,N/A,,Clear,340,2013-02-10 04:53:00